Regional Weather Roundup
Issued by NWS Boston, MA

Home | Current Version | Previous Version | Text Only | Print | Product List | Glossary On
Versions: 1 2 3 4 5 6 7 8 9 10 11 12 13 14 15 16 17 18 19 20 21 22 23 24 25 26 27 28 29 30 31 32 33 34 35 36 37 38 39 40 41 42 43 44 45 46 47 48 49 50
000
ASUS41 KBOX 211510
RWRBOX

REGIONAL WEATHER ROUNDUP
NATIONAL WEATHER SERVICE TAUNTON MA
1000 AM EST SUN DEC 21 2014

NOTE:  "FAIR" INDICATES FEW OR NO CLOUDS BELOW 12,000 FEET WITH NO
SIGNIFICANT WEATHER AND/OR OBSTRUCTIONS TO VISIBILITY.  THE FOLLOWING
OBSERVATION LOCATIONS DO NOT REPORT PRESENT WEATHER...PROVINCETOWN...
SMITHFIELD...BLOCK ISLAND...KEENE...AND OXFORD.

MAZALL-211600-
EASTERN MASSACHUSETTS

CITY           SKY/WX    TMP DP  RH WIND       PRES   REMARKS
BOSTON         CLOUDY    30  25  81 N9        30.34R WCI  22
BEVERLY        CLOUDY    29  22  75 N9        30.33S WCI  20
LAWRENCE       CLOUDY    29  21  72 N9        30.36S WCI  20
BEDFORD        CLOUDY    30  23  75 N6        30.33R WCI  24
BLUE HILL        N/A     29  28  96 VRB3      30.29R
NORWOOD        CLOUDY    31  27  85 NW3       30.33R
MARSHFIELD     CLOUDY    39  36  87 N7        30.32S
PLYMOUTH       CLOUDY    38  36  92 CALM      30.30R
TAUNTON        CLOUDY    36  34  92 N5        30.31R
NEW BEDFORD    CLOUDY    37  37 100 CALM      30.30R
$$

MAZALL-211600-
CAPE COD AND THE ISLANDS

CITY           SKY/WX    TMP DP  RH WIND       PRES   REMARKS
FALMOUTH       CLOUDY    41  36  81 E7        30.29R
HYANNIS        CLOUDY    41  34  76 NE5       30.28R
CHATHAM        CLOUDY    41  33  73 E8        30.29S
PROVINCETOWN   CLOUDY    39  36  87 SE6       30.31R
NANTUCKET      CLOUDY    43  34  70 E9        30.27R
MARTHAS VNYRD  CLOUDY    41  35  79 NE10      30.28R
$$

MAZALL-211600-
CENTRAL AND WESTERN MASSACHUSETTS

CITY           SKY/WX    TMP DP  RH WIND       PRES   REMARKS
WORCESTER      CLOUDY    27  25  92 NE8       30.28R WCI  19
FITCHBURG      CLOUDY    31  23  72 N7        30.34R WCI  24
ORANGE         CLOUDY    30  24  78 N3        30.32R
SPRINGFIELD    FLURRIES  31  28  89 N7        30.31S WCI  24
WESTFIELD      LGT SNOW  32  28  85 N8        30.32R FOG     WCI  25
NORTH ADAMS    CLOUDY    26  24  92 CALM      30.32R FOG
PITTSFIELD     CLOUDY    28  25  88 NE5       30.26R WCI  23
$$

RIZALL-211600-
RHODE ISLAND

CITY           SKY/WX    TMP DP  RH WIND       PRES   REMARKS
PROVIDENCE     CLOUDY    33  31  92 N12       30.32R WCI  24
NEWPORT        CLOUDY    37  34  89 N9        30.29R WCI  30
BLOCK ISLAND   CLOUDY    39  34  81 NE13G20   30.26S WCI  32
SMITHFIELD     CLOUDY    30  21  69 N9        30.29S WCI  22
WESTERLY       CLOUDY    37  33  85 N9        30.29S WCI  30
$$

CTZALL-211600-
CONNECTICUT

CITY           SKY/WX    TMP DP  RH WIND       PRES   REMARKS
BRADLEY INTL   LGT SNOW  32  29  88 N8        30.31R FOG     WCI  25
HARTFORD       LGT SNOW  32  30  92 VRB5      30.32R FOG     WCI  27
BRIDGEPORT     CLOUDY    35  31  85 N9        30.30S WCI  28
DANBURY        LGT SNOW  32  27  81 N3        30.30S
GROTON         CLOUDY    35  34  96 N8        30.29R WCI  29
NEW HAVEN      LGT SNOW  36  30  79 N9        30.30S WCI  29
CHESTER        LGT SNOW  32  32 100 N6        30.29R WCI  26
MERIDEN        LGT SNOW  32  29  88 N7        30.31S FOG     WCI  26
WILLIMANTIC    LGT SNOW  33  30  88 N6        30.31R FOG     WCI  28
OXFORD         LGT SNOW  30  25  80 NE5       30.28R FOG     WCI  25
$$

MEZ002-015-021-024-NHZ003-005-008-011-012-014-VTZ005-008-211600-
NORTHERN NEW ENGLAND

CITY           SKY/WX    TMP DP  RH WIND       PRES   REMARKS
PORTLAND ME    PTSUNNY   26  21  81 N7        30.38R WCI  18
BANGOR ME      CLOUDY    26  23  88 N3        30.38R
CONCORD NH     LGT SNOW  29  25  85 CALM      30.35S FOG
MANCHESTER NH  CLOUDY    30  23  75 N7        30.33S WCI  23
NASHUA NH      FLURRIES  30  25  82 N3        30.35S
PORTSMOUTH NH  LGT SNOW  26  21  80 N9        30.35S WCI  17
JAFFREY NH     CLOUDY    28  24  85 VRB3      30.29S
KEENE NH       CLOUDY    30  28  93 N3        30.33R
BURLINGTON VT  CLOUDY    21  16  81 CALM      30.37R
MT. WASHINGTON FOG       14  14 100 W18         N/A  VSB 1/8 WCI  -3
$$

NYZ052-076-211600-
EASTERN NEW YORK

CITY           SKY/WX    TMP DP  RH WIND       PRES   REMARKS
ALBANY         LGT SNOW  28  23  81 NW6       30.36R FOG     WCI  22
NEW YORK CITY  CLOUDY    33  27  78 N6        30.32R WCI  28
$$

ANZALL-211600-
MARINE OBSERVATIONS

STATION/POSITION TIME  TEMP    WIND        PRES    VSBY  WAVE
                       AIR SEA DIR/SP/G                  HT/PER
                 (UTC) (F)     (DEG/KT/KT) (MB)    (MI)  (FT/S)
BOSTON BUOY      1450   36 45   20/ 19/ 23 1026.1R         5/ 6
BUZZARDS BAY     1400           50/ 17/ 18 1025.7R
NANTUCKET SOUND  1450   42 43   70/ 10/ 12 1025.0R         2/ 3
MASS BAY-STELLWA 1404   35 47  360/ 17/ 21   N/A    1 7/8  4/ 5
ISLE OF SHOALS   1400   26     360/ 12/ 13 1027.0R
S OF BLOCK IS    1408      51                N/A           4/ 5
$$

......................KEY.........................
  SKY/WX - SKY CONDITION/PRESENT WEATHER
  TMP    - TEMPERATURE IN FAHRENHEIT
  DWPT   - DEWPOINT IN FAHRENHEIT
  RH     - RELATIVE HUMIDITY IN PERCENT
  WIND   - DIRECTION AND SPEED IN MPH
  PRES   - MEAN SEA LEVEL PRESSURE IN INCHES OF HG
  WCI    - WIND CHILL INDEX
  VSB    - VISIBILITY IN MILES
  HX     - HEAT INDEX
  TC     - TEMPERATURE IN CELSIUS
  VRB    - VARIABLE WIND DIRECTION
  N/A    - NOT AVAILABLE


USA.gov is the U.S. government's official web portal to all federal, state and local government web resources and services.